CAPE
0 0 0 0 3 4 4 4 7 11 30 48 41 40 53 43 46 43 30 24 39 30 32 26 26 42 49 29 33 48 53 43 37 9 4 7 0 1 15 39 47 70 76
0 0 0 0 0 0 0 2 6 12 25 29 26 51 24 24 43 47 26 38 27 44 26 27 33 38 48 70 22 28 38 49 48 42 17 6 0 0 3 16 18 45 70
0 0 0 0 0 0 0 3 10 12 17 24 27 26 25 45 36 32 44 32 47 39 41 51 33 30 26 52 62 62 32 39 40 43 39 10 0 0 0 5 13 25 57
0 0 0 0 0 0 2 6 12 19 16 15 22 30 43 36 47 26 28 21 44 32 47 41 43 22 30 25 43 61 54 83 69 10 7 5 7 0 0 1 10 29 35
0 0 0 0 0 1 6 19 16 12 15 26 32 33 42 39 30 21 23 21 22 25 39 39 43 34 26 31 30 51 69 63 71 7 0 5 16 7 2 0 1 9 28
0 0 0 0 0 0 4 17 19 22 23 28 30 26 31 20 13 19 18 25 16 21 23 35 21 23 21 20 24 33 42 59 39 4 1 0 0 18 19 9 0 3 22
0 0 0 0 0 0 3 19 18 15 18 14 17 16 18 11 11 11 18 17 21 26 25 22 25 35 37 40 34 25 49 38 25 14 10 4 0 1 17 23 18 6 12
0 0 0 0 0 0 0 9 14 18 19 13 11 9 8 5 6 7 12 12 19 20 19 17 22 26 20 23 26 54 31 18 5 6 7 6 0 0 4 32 30 23 23
0 0 0 0 0 0 0 2 3 6 6 5 3 7 2 0 0 1 2 5 16 18 16 20 17 18 19 16 27 25 15 13 6 0 0 0 0 1 14 19 36 34 30
0 0 0 0 0 0 0 0 0 0 0 0 0 0 0 0 0 0 0 2 8 11 16 13 17 17 16 17 5 8 11 7 0 0 0 0 0 11 19 18 30 38 35
0 0 0 0 0 0 0 0 0 0 0 0 0 0 0 0 0 0 0 2 4 7 8 8 13 16 10 0 0 0 1 0 0 0 0 0 2 16 34 38 37 41 41
0 0 0 0 0 0 0 0 0 0 0 0 0 0 0 0 0 0 0 0 0 0 1 2 3 4 0 0 0 0 0 0 0 0 0 0 8 21 30 37 52 42 30
0 0 0 0 0 0 0 0 0 0 0 0 0 0 0 0 0 0 0 0 0 0 0 0 0 0 0 0 0 0 0 0 0 0 0 0 7 23 33 41 44 35 28
0 0 0 0 0 0 0 0 0 0 0 0 0 0 0 0 0 0 0 0 0 1 4 3 4 4 1 0 0 0 0 0 0 0 0 0 6 20 37 42 44 49 60
0 0 0 0 0 0 0 0 0 0 0 0 0 0 0 0 0 0 0 2 6 10 11 8 8 8 5 3 1 0 0 0 1 1 1 1 7 12 28 40 38 50 48
0 0 0 0 0 0 0 0 0 0 0 0 0 0 0 0 0 0 1 6 9 11 13 15 12 10 9 6 2 0 0 0 2 4 4 2 5 12 24 38 35 56 67
0 0 0 0 0 0 0 0 0 0 0 0 0 0 0 0 0 1 7 9 10 13 10 11 13 12 12 12 7 4 3 3 5 4 9 12 8 8 17 27 38 36 59
0 0 0 0 0 0 0 0 0 0 0 0 0 0 0 0 0 8 9 12 15 8 3 1 5 13 2 9 13 7 10 11 11 8 13 16 14 15 20 25 33 34 42
0 0 0 0 0 0 0 0 0 0 0 0 0 0 0 0 4 11 12 18 19 21 11 13 5 8 15 13 18 17 12 17 16 16 18 7 9 20 32 27 29 20 25
0 0 0 0 0 0 0 0 0 0 0 0 0 0 0 0 3 9 13 13 9 14 29 34 41 33 32 14 17 13 10 15 14 21 13 22 29 20 24 34 21 5 1
0 0 0 0 0 0 0 0 0 0 0 0 0 0 0 0 2 6 9 14 5 23 36 38 38 47 34 23 47 13 7 14 22 16 12 20 0 20 42 28 19 8 2
0 0 0 0 0 0 0 0 0 0 0 0 0 0 0 0 1 2 7 10 13 16 26 42 40 63 52 25 34 31 9 2 8 14 47 18 12 21 65 28 14 14 4
0 0 0 0 0 0 0 0 0 0 0 0 0 0 0 0 0 2 5 12 16 19 17 16 44 48 61 53 61 63 42 18 15 13 16 16 10 4 70 25 24 19 0
0 0 0 0 0 0 0 0 0 0 0 0 0 0 0 0 0 1 2 7 14 18 19 18 28 51 51 47 25 55 71 36 52 23 19 54 8 2 14 58 73 76 66
0 0 0 0 0 0 0 0 0 0 0 0 0 0 0 0 0 2 5 8 16 21 17 21 15 32 44 42 52 52 12 10 36 32 16 30 0 1 7 87 128 172 119
0 0 0 0 0 0 0 0 0 0 0 0 0 0 0 0 0 3 3 17 21 18 15 14 18 19 14 31 16 34 58 23 62 22 47 54 26 5 3 32 69 51 66
CIN
-0 -0 -0 -0 -0 -0 -0 -0 -0 -0 -0 -0 -0 -0 -0 -0 -0 -0 -0 -0 -0 -0 -0 -0 -0 -0 -0 -0 -0 -0 -0 -0 -0 -0 -0 -0 -0 -0 -0 -0 -0 -0 -6
-0 -0 -0 -0 -0 -0 -0 -0 -0 -0 -0 -0 -0 -0 -0 -0 -0 -0 -0 -0 -0 -0 -0 -0 -0 -0 -0 -0 -0 -0 -0 -0 -0 -0 -0 -0 -0 -0 -0 -0 -0 -0 -0
-0 -0 -0 -0 -0 -0 -0 -0 -0 -0 -0 -0 -0 -0 -0 -0 -0 -0 -0 -0 -0 -0 -0 -0 -0 -0 -0 -0 -0 -0 -0 -0 -0 -0 -0 -0 -0 -0 -0 -0 -0 -0 -0
-0 -0 -0 -0 -0 -0 -0 -0 -0 -0 -0 -0 -0 -0 -0 -0 -0 -0 -0 -0 -0 -0 -0 -0 -0 -0 -0 -0 -0 -0 -0 -0 -0 -4 -0 -0 -0 -0 -0 -0 -0 -0 -0
-0 -0 -0 -0 -0 -0 -0 -0 -0 -0 -0 -0 -0 -0 -0 -0 -0 -0 -0 -0 -0 -0 -0 -0 -0 -0 -0 -0 -0 -0 -0 -0 -0 -0 -0 -0 -0 -0 -0 -0 -0 -0 -0
-0 -0 -0 -0 -0 -0 -0 -0 -0 -0 -0 -0 -0 -0 -0 -0 -0 -0 -0 -0 -0 -0 -0 -0 -0 -0 -0 -0 -0 -0 -0 -0 -0 -0 -0 -0 -0 -0 -0 -0 -0 -0 -0
-0 -0 -0 -0 -0 -0 -0 -0 -0 -0 -0 -0 -0 -0 -0 -0 -0 -0 -0 -0 -0 -0 -0 -0 -0 -0 -0 -0 -0 -0 -0 -0 -0 -0 -0 -0 -0 -0 -0 -0 -0 -0 -0
-0 -0 -0 -0 -0 -0 -0 -0 -0 -0 -0 -0 -0 -0 -0 -0 -0 -0 -0 -0 -0 -0 -0 -0 -0 -0 -0 -0 -0 -0 -0 -0 -0 -0 -0 -0 -0 -0 -0 -0 -0 -0 -0
-0 -0 -0 -0 -0 -0 -0 -0 -0 -0 -0 -0 -0 -0 -0 -0 -0 -0 -0 -0 -0 -0 -0 -0 -0 -0 -0 -0 -0 -0 -0 -0 -0 -0 -0 -0 -0 -0 -0 -0 -0 -0 -0
-0 -0 -0 -0 -0 -0 -0 -0 -0 -0 -0 -0 -0 -0 -0 -0 -0 -0 -0 -0 -0 -0 -0 -0 -0 -0 -0 -0 -0 -0 -0 -0 -0 -0 -0 -0 -0 -0 -0 -0 -0 -0 -0
-0 -0 -0 -0 -0 -0 -0 -0 -0 -0 -0 -0 -0 -0 -0 -0 -0 -0 -0 -0 -0 -0 -0 -0 -0 -0 -0 -0 -0 -0 -0 -0 -0 -0 -0 -0 -0 -0 -0 -0 -0 -0 -0
-0 -0 -0 -0 -0 -0 -0 -0 -0 -0 -0 -0 -0 -0 -0 -0 -0 -0 -0 -0 -0 -0 -0 -0 -0 -0 -0 -0 -0 -0 -0 -0 -0 -0 -0 -0 -0 -0 -0 -0 -0 -0 -0
-0 -0 -0 -0 -0 -0 -0 -0 -0 -0 -0 -0 -0 -0 -0 -0 -0 -0 -0 -0 -0 -0 -0 -0 -0 -0 -0 -0 -0 -0 -0 -0 -0 -0 -0 -0 -0 -0 -0 -0 -0 -0 -0
-0 -0 -0 -0 -0 -0 -0 -0 -0 -0 -0 -0 -0 -0 -0 -0 -0 -0 -0 -0 -0 -0 -0 -0 -0 -0 -0 -0 -0 -0 -0 -0 -0 -0 -0 -0 -0 -0 -0 -0 -0 -0 -0
-0 -0 -0 -0 -0 -0 -0 -0 -0 -0 -0 -0 -0 -0 -0 -0 -0 -0 -0 -0 -0 -0 -0 -0 -0 -0 -0 -0 -0 -0 -0 -0 -0 -0 -0 -0 -0 -0 -0 -0 -0 -0 -0
-0 -0 -0 -0 -0 -0 -0 -0 -0 -0 -0 -0 -0 -0 -0 -0 -0 -0 -0 -0 -0 -0 -0 -0 -0 -0 -0 -0 -0 -0 -0 -0 -0 -0 -0 -0 -0 -0 -0 -0 -0 -0 -0
-0 -0 -0 -0 -0 -0 -0 -0 -0 -0 -0 -0 -0 -0 -0 -0 -0 -0 -0 -0 -0 -0 -0 -0 -0 -0 -0 -0 -0 -0 -0 -0 -0 -0 -0 -0 -0 -0 -0 -0 -0 -0 -0
-0 -0 -0 -0 -0 -0 -0 -0 -0 -0 -0 -0 -0 -0 -0 -0 -0 -0 -0 -0 -0 -0 -0 -0 -0 -0 -0 -0 -0 -0 -0 -0 -0 -0 -0 -0 -0 -0 -0 -0 -0 -0 -0
-0 -0 -0 -0 -0 -0 -0 -0 -0 -0 -0 -0 -0 -0 -0 -0 -0 -0 -0 -0 -0 -0 -0 -0 -0 -0 -0 -0 -0 -0 -0 -0 -0 -0 -0 -0 -0 -0 -0 -0 -0 -0 -0
-0 -0 -0 -0 -0 -0 -0 -0 -0 -0 -0 -0 -0 -0 -0 -0 -0 -0 -0 -0 -0 -0 -0 -0 -0 -0 -0 -0 -0 -0 -0 -0 -0 -0 -0 -0 -0 -0 -0 -0 -0 -0 -0
-0 -0 -0 -0 -0 -0 -0 -0 -0 -0 -0 -0 -0 -0 -0 -0 -0 -0 -0 -0 -0 -0 -0 -0 -0 -0 -0 -0 -0 -0 -0 -0 -0 -0 -0 -0 -0 -0 -0 -0 -0 -0 -0
-0 -0 -0 -0 -0 -0 -0 -0 -0 -0 -0 -0 -0 -0 -0 -0 -0 -0 -0 -0 -0 -0 -0 -0 -0 -0 -0 -1 -0 -0 -0 -0 -0 -0 -0 -0 -0 -2 -0 -0 -0 -0 -0
-0 -0 -0 -0 -0 -0 -0 -0 -0 -0 -0 -0 -0 -0 -0 -0 -0 -0 -0 -0 -0 -0 -0 -0 -0 -0 -0 -0 -0 -0 -0 -0 -0 -0 -0 -1 -0 -3 -0 -7 -3 -0 -0
-0 -0 -0 -0 -0 -0 -0 -0 -0 -0 -0 -0 -0 -0 -0 -0 -0 -0 -0 -0 -0 -0 -0 -0 -0 -0 -0 -0 -0 -0 -0 -0 -0 -0 -0 -0 -0 -0 -1 -0 -0 -0 -0
-0 -0 -0 -0 -0 -0 -0 -0 -0 -0 -0 -0 -0 -0 -0 -0 -0 -0 -0 -0 -0 -0 -0 -0 -0 -0 -0 -0 -0 -0 -0 -2 -0 -0 -0 -0 -0 -0 -0 -0 -0 -1 -0
-0 -0 -0 -0 -0 -0 -0 -0 -0 -0 -0 -0 -0 -0 -0 -0 -0 -0 -0 -0 -0 -0 -0 -0 -0 -0 -0 -0 -0 -0 -0 -0 -0 -0 -0 -0 -0 -0 -0 -0 -0 -2 -6
Wind_Speed
8 8 14 14 16 16 17 19 18 17 15 17 15 15 16 16 17 19 19 18 17 19 19 19 18 18 17 15 17 16 16 17 16 16 14 15 14 16 16 15 15 11 4
6 8 12 16 17 18 18 18 16 15 15 14 15 14 15 14 15 16 17 16 17 17 18 18 19 19 19 16 15 17 15 16 17 17 17 12 10 13 15 16 15 14 12
8 9 10 15 16 17 17 16 17 17 16 15 13 14 15 15 16 16 16 17 17 17 17 18 18 19 18 19 19 16 15 17 16 17 17 10 7 13 15 15 16 14 12
9 9 11 14 15 15 15 13 13 14 15 14 15 15 16 15 15 16 18 17 17 16 17 17 17 18 19 19 19 19 15 16 16 16 11 12 9 11 14 14 16 16 15
8 9 12 14 14 14 14 14 13 11 11 14 14 15 16 18 18 18 18 16 15 15 18 17 17 17 19 19 19 18 18 17 16 15 10 10 11 12 13 16 15 16 16
8 9 11 14 14 14 13 13 12 12 12 12 13 14 15 18 17 17 16 16 15 16 17 19 18 17 17 19 18 19 20 18 18 10 12 11 14 13 16 17 17 17 16
7 8 10 13 14 14 13 13 12 12 12 12 13 14 15 15 16 16 16 15 17 17 18 18 17 18 17 18 19 19 20 21 14 13 8 12 12 17 19 19 18 18 18
7 8 8 9 12 12 12 12 11 12 13 13 13 13 13 13 14 14 15 15 17 17 18 18 18 19 18 18 18 19 21 20 16 14 12 11 16 18 19 20 20 19 19
6 7 8 9 9 8 11 13 12 12 13 12 12 13 13 12 13 12 13 13 15 16 17 17 18 17 18 19 19 19 20 20 15 11 12 10 14 16 21 20 21 21 20
7 7 8 9 9 8 8 11 11 11 12 11 11 13 11 9 11 12 13 15 16 16 16 16 17 18 18 19 19 18 18 19 11 11 10 9 15 17 21 22 22 21 21
6 7 7 8 8 8 6 7 7 9 9 8 9 10 9 8 10 13 13 16 17 16 16 15 16 17 16 14 13 15 18 8 10 9 8 13 17 19 21 22 23 22 20
7 7 7 8 8 8 6 7 7 6 7 7 8 9 8 10 9 10 11 14 15 16 16 15 15 15 12 9 8 11 7 10 10 10 8 16 17 20 22 23 23 24 22
5 6 7 7 7 8 7 6 4 4 5 5 9 9 9 8 8 8 7 8 9 12 8 11 11 8 12 10 9 10 10 11 8 9 11 17 19 20 22 23 23 24 23
5 6 6 7 7 7 5 5 6 5 6 6 7 9 8 6 8 9 7 9 8 8 11 10 8 12 12 13 13 13 13 11 8 8 12 19 19 21 22 23 23 24 24
5 5 6 6 7 7 7 6 6 6 6 8 7 8 8 8 8 9 9 8 8 9 10 10 10 10 11 13 12 13 13 13 13 9 9 20 21 21 22 23 24 24 25
4 5 6 7 6 7 7 7 6 6 7 6 6 8 10 8 9 9 9 9 9 9 10 10 10 10 10 12 13 12 13 13 13 14 11 13 21 21 22 22 23 24 25
5 4 6 6 6 7 7 7 5 5 6 6 6 8 10 10 10 11 8 10 10 9 11 10 11 10 11 12 14 11 11 12 12 15 14 12 14 21 21 21 22 24 26
4 6 5 5 6 7 7 6 5 6 5 6 6 7 10 11 11 9 8 8 9 8 8 7 8 8 9 10 11 11 11 12 13 13 14 12 11 13 16 21 22 24 26
5 6 6 6 7 7 7 6 6 6 5 5 6 7 11 10 11 9 8 8 9 8 8 8 9 9 9 10 11 13 13 12 13 11 13 14 14 13 12 19 22 23 25
3 4 5 4 5 7 5 5 4 4 5 5 6 7 10 8 11 10 8 9 10 8 8 10 12 10 10 9 10 11 12 11 10 9 9 12 13 14 16 16 13 13 22
4 4 4 5 6 5 5 5 5 5 5 5 6 8 9 9 10 10 8 9 10 10 10 11 9 11 9 10 8 8 11 9 7 9 10 8 13 13 17 11 10 9 10
4 4 3 4 4 4 4 4 4 5 4 5 5 7 9 9 9 9 10 9 10 9 10 10 13 8 8 6 6 7 7 10 10 14 8 7 14 13 13 10 11 12 11
6 4 5 4 4 3 5 4 3 2 3 4 6 6 7 8 8 9 10 9 10 9 8 9 10 12 9 11 11 5 4 5 11 6 10 7 13 10 11 8 12 10 11
6 4 5 5 5 3 3 4 5 4 5 5 5 6 7 8 9 9 10 9 10 8 10 10 8 8 8 9 9 5 8 7 4 7 8 7 10 10 14 6 7 7 7
5 5 5 5 5 3 4 4 4 5 4 4 5 7 7 7 8 9 10 10 10 8 9 11 11 10 7 7 10 10 9 8 6 4 8 11 8 9 10 7 8 7 8
6 6 5 6 4 4 4 4 5 6 6 5 6 5 6 6 5 7 10 9 9 9 10 9 9 11 10 9 8 8 7 6 7 2 7 11 9 6 9 7 9 9 8
Wind_Direction
36 11 4 10 5 0 357 354 352 344 359 357 2 3 357 358 359 356 354 353 351 347 344 343 339 344 347 337 331 334 334 330 331 324 328 340 346 345 344 349 345 294 35
25 16 10 9 2 358 354 352 351 347 355 355 351 6 359 357 1 1 353 355 351 350 347 345 340 340 339 346 331 326 331 332 329 329 325 320 329 334 339 346 340 340 323
28 12 357 10 2 357 353 351 349 347 355 359 7 358 4 3 6 1 357 354 350 351 344 346 348 344 336 335 343 343 327 325 324 331 326 296 321 323 327 331 328 328 331
25 12 11 7 4 359 357 353 354 355 359 350 5 7 358 357 3 350 347 348 350 348 343 342 344 342 341 336 331 337 335 349 340 1 332 327 312 310 316 318 322 324 324
31 15 21 11 7 7 2 9 3 1 356 6 3 6 358 359 355 351 352 344 344 347 342 341 344 339 336 341 329 331 336 339 347 351 328 320 318 296 317 308 311 315 317
29 23 27 15 12 11 4 11 3 5 13 11 10 4 355 359 355 350 341 350 345 347 338 339 334 333 335 338 332 326 323 333 338 352 324 321 311 316 311 301 298 298 304
36 26 28 18 16 13 7 12 6 4 14 14 9 356 3 1 350 350 352 350 341 343 340 338 338 330 336 331 330 331 331 324 334 309 311 307 304 316 309 300 295 286 290
30 19 22 28 18 15 10 19 16 19 16 7 7 359 4 359 350 343 348 346 338 342 338 333 331 335 329 324 324 334 328 322 320 304 306 294 295 301 306 297 290 289 284
34 23 22 15 13 26 23 21 10 14 7 5 4 1 357 355 352 349 348 344 344 345 336 336 335 330 328 327 326 326 317 317 309 304 301 294 292 298 298 293 293 284 287
36 28 18 14 15 11 17 18 8 6 3 0 359 358 354 348 355 0 352 352 348 346 348 340 337 334 325 329 321 314 314 307 295 307 291 296 303 294 294 290 291 289 282
39 25 19 12 13 4 4 17 1 3 6 359 357 4 348 360 359 349 351 345 345 344 342 339 338 333 330 311 313 315 310 297 305 297 294 297 301 296 288 287 285 286 285
22 16 13 7 3 356 357 3 2 1 12 12 5 358 355 351 357 342 342 339 339 341 335 336 329 324 318 325 319 310 313 308 301 294 289 296 296 296 292 283 281 281 281
13 11 10 3 358 1 355 342 358 355 360 355 357 356 344 343 343 344 337 341 339 336 333 329 326 326 325 321 316 311 308 308 296 294 293 294 292 294 293 285 278 276 274
13 11 7 3 1 1 349 356 350 348 342 348 345 347 343 342 340 343 336 337 331 333 327 327 325 321 317 315 315 312 307 302 298 296 292 291 292 290 291 288 277 272 274
7 10 13 359 358 356 353 354 349 348 346 341 345 349 345 343 340 337 339 336 332 333 330 328 326 324 319 324 311 312 310 304 299 294 295 293 287 288 286 283 280 270 268
8 13 356 359 5 348 351 354 343 347 344 350 351 355 352 344 340 340 340 339 339 341 340 330 325 326 326 307 314 311 308 303 298 293 291 294 289 285 283 281 277 273 266
15 358 5 354 356 351 348 350 343 354 346 355 354 354 354 349 344 339 341 356 348 337 335 328 338 344 325 324 310 314 308 301 301 300 297 292 292 288 280 276 275 272 269
342 0 349 351 349 352 352 349 352 360 350 354 353 351 358 350 347 341 348 345 345 338 337 332 326 332 325 316 315 318 312 306 303 301 290 293 294 297 290 276 269 268 263
337 344 345 345 350 346 345 343 350 356 358 0 357 357 353 352 351 340 342 338 338 336 329 335 339 335 323 321 323 321 318 310 309 296 302 297 295 285 286 285 273 266 261
316 310 307 323 335 339 334 344 356 354 4 3 1 1 353 354 349 341 339 344 342 337 333 337 330 333 328 317 317 308 308 304 280 291 306 312 311 296 287 280 268 259 247
228 276 301 314 344 339 346 352 351 359 360 2 5 355 357 352 351 346 346 350 342 335 332 323 327 326 323 332 319 313 312 320 333 335 299 326 304 296 286 275 258 255 255
243 240 260 288 316 331 329 346 333 337 349 347 346 352 356 351 351 344 343 345 347 341 334 327 330 333 317 350 311 312 317 325 352 318 324 351 326 310 300 279 251 250 257
225 226 247 275 294 317 330 325 325 309 281 343 355 351 348 350 350 349 345 343 344 343 339 331 322 336 330 336 341 313 323 318 320 319 321 349 322 310 306 310 288 264 260
218 223 241 260 281 300 315 317 332 331 331 351 341 344 347 351 352 352 348 349 344 344 344 342 336 330 336 333 338 311 318 321 306 315 333 339 321 322 321 319 302 302 289
208 222 247 254 258 280 294 319 329 332 335 336 339 338 353 352 351 349 346 340 342 342 347 343 344 343 334 338 331 326 325 305 313 287 310 328 336 332 320 346 351 0 2
202 222 238 258 281 278 291 308 319 323 330 328 337 338 347 348 339 348 348 345 338 337 343 342 343 344 343 330 332 325 325 310 313 300 299 328 329 314 312 4 22 17 17